星链-36582(STARLINK-36582)

导读

STARLINK-36582是美国SpaceX公司星链(Starlink)星座中的一颗低轨通信卫星,于2026年1月29日发射升空。它运行在近地轨道,依托星链先进的通信技术,能够提供低延迟、高速率的全球互联网接入服务,重点覆盖偏远及网络基础设施薄弱区域,进一步扩充了星链星座的服务容量,助力提升全球互联互通水平,推动数字包容发展。

基本信息
目录编号:
67599
目录名称:
STARLINK-36582
国际标识:
2026-018L
轨道中心:
EARTH
卫星名称:
星链-36582
卫星全名:
星链-36582(STARLINK-36582)
卫星状态:
在轨 (已飞行218 天)
发射日期:
2026-01-29 UTC
国别 :
美国 (US)
星等 :
--
轨道信息
数据来源 国际轨道数据
星历时间: 2026-09-03T05:36:33+0800
1天前
查看轨道信息
半长轴: 6843.672km
偏心率: 0.0000383
轨道倾角: 97.286°
近地点辐角 95.292°
升交点赤经 309.615°
平近点角 264.837°
近地点: 465.272km
远地点: 465.798km
周期: 93.906分钟
每日圈数: 15.33448
详细信息
固有亮度:
5
最大亮度:
2.5
卫星平台:
Starlink V1.0
覆盖范围:
全球
运营商:
太空探索技术公司
运营商所在国:
美国
制造商(研发单位):
太空探索技术公司
制造商所在国:
美国
使用方式:
暂无
卫星简介
Starlink 计划是 SpaceX 推出的全球卫星互联网项目,通过发射低轨道卫星,为全球尤其是偏远地区提供高速、低延迟的互联网服务。自 2019 年起,Starlink 已部署数千颗卫星,旨在缩小全球数字鸿沟,推动互联网普及。该项目还为军事、航空等行业提供通信支持,带来广泛经济效益。
2D轨道图
3D轨道图
轨道高度分析图
轨道倾角分析图
轨道综合分析图
查看轨道综合分析图
交会数据列表
事件ID 空间交会对象 最接近时刻(TCA) 交会距离 交会风险概率(CRP) 交会风险指数(CRI) 操作
CDM_260829-114106-417206-759921
2026-08-29T
11:41:10+0000
2.238 km
极远距离
1.625646E-6 低风险 0.39
CDM_260904-000606-223406-759921
2026-09-04T
00:06:24+0000
2.677 km
极远距离
1.550465E-6 低风险 0.39
CDM_260905-082406-547406-759921
2026-09-05T
08:24:44+0000
2.877 km
极远距离
1.405544E-6 低风险 0.38